Home   Weather   Papenburg   Past weeks

Flag for Germany Past Weather in Papenburg, Lower Saxony, Germany — Yesterday and Last 2 Weeks

Now
66 °F

Overcast.


Feels Like: 66 °F
Forecast: 57 / 71 °F
Wind: 7 mph from Southeast

Location: Emden-Koenigspolder

Current Time: Jun 28, 2017 at 7:34:30 pm

Latest Report: Jun 28, 2017 at 6:00 pm


Visibility: 3 mi

Pressure: 29.38 "Hg

Humidity: 92%

Dew Point: 64 °F

Location of PapenburgLocation

Past Weather in Papenburg — Graph

°F

Papenburg Temperature Yesterday

Maximum temperature yesterday: 69 °F (at 4:00 pm)
Minimum temperature yesterday: 45 °F (at 4:00 am)
Average temperature yesterday: 57 °F

High & Low Weather Summary for the Past Weeks

 TemperatureHumidityPressure
High85 °F (Jun 22, 3:00 pm)100% (Jun 18, 6:00 am)30.30 "Hg (Jun 18, 6:00 am)
Low45 °F (Jun 27, 4:00 am)45% (Jun 21, 3:00 pm)29.38 "Hg (Jun 28, 6:00 pm)
Average63 °F78%29.98 "Hg
* Reported Jun 13 6:00 pm — Jun 28 6:00 pm, Papenburg. Weather by CustomWeather, © 2017

Note: Actual official high and low records may vary slightly from our data, if they occured in-between our weather recording intervals... More about our weather records

Advertising

Papenburg Weather History for the Previous 24 Hours

Scroll right to see more
 ConditionsComfort  
Time TempWeatherWind HumidityBarometerVisibility
6:00 pm
Wed, Jun 28
66 °FOvercast.7 mph92%29.38 "Hg3 mi
4:00 pm69 °FOvercast.8 mph80%29.41 "Hg8 mi
3:00 pm69 °FOvercast.7 mph79%29.41 "Hg8 mi
1:00 pm65 °FOvercast.8 mph85%29.44 "Hg9 mi
12:00 pm64 °FLight rain. Overcast.8 mph87%29.47 "Hg7 mi
10:00 am64 °FOvercast.8 mph77%29.47 "Hg10 mi
9:00 am61 °FOvercast.8 mph83%29.47 "Hg12 mi
7:00 am58 °FLight rain. Overcast.5 mph92%29.55 "Hg7 mi
6:00 am58 °FOvercast.6 mph93%29.57 "Hg7 mi
4:00 am58 °FDrizzle. Overcast.7 mph96%29.61 "Hg6 mi
3:00 am58 °FLight rain. Overcast.3 mph96%29.65 "Hg3 mi
1:00 am58 °FOvercast.5 mph92%29.70 "Hg9 mi
12:00 am58 °FRain. Overcast.3 mph90%29.72 "Hg3 mi
10:00 pm
Tue, Jun 27
59 °FLight rain. Overcast.5 mph81%29.75 "Hg11 mi
9:00 pm61 °FOvercast.3 mph71%29.76 "Hg19 mi
7:00 pm63 °FOvercast.5 mph67%29.77 "Hg19 mi
Weather by CustomWeather, © 2017

See weather overviewHow to use our weather pages